Theta_e
279 279 279 278 277 276 272 274 274 275 273 277 277 278 279 280 280 280 281 282 283 286 287 287 287 288 289 290 291 291 290 289 289 290 291 291 291 291 291 291 290 291 290 290
278 279 278 277 278 277 276 275 273 274 274 277 279 279 279 279 279 280 281 281 283 287 286 287 288 288 289 290 290 291 290 289 289 289 290 290 290 290 290 290 290 290 290 290
277 277 277 277 278 277 277 276 276 274 277 278 279 279 279 279 279 279 281 282 283 286 286 287 287 289 289 290 290 290 290 289 289 289 289 290 290 290 290 290 290 290 289 290
275 277 277 281 279 279 279 278 277 277 278 279 279 280 280 280 279 280 281 282 285 287 287 288 289 289 289 290 289 289 289 289 288 288 288 290 290 289 289 290 290 290 290 290
276 276 280 277 278 278 278 278 278 278 279 280 280 278 277 280 281 281 282 284 286 288 288 289 289 290 289 289 289 289 288 288 288 288 288 289 289 290 289 289 290 289 291 290
272 276 277 281 279 280 280 276 279 280 279 279 278 274 276 280 281 282 284 286 286 288 288 289 289 290 289 288 288 287 288 289 288 288 288 288 289 291 291 290 289 290 290 291
274 275 280 281 279 280 278 282 279 280 280 279 277 277 279 281 281 282 284 287 288 287 287 288 289 290 288 288 287 289 290 289 288 288 288 289 290 290 291 290 289 289 290 290
272 273 280 279 278 279 282 279 280 280 281 280 280 281 280 280 281 282 285 286 286 286 286 288 289 289 288 288 289 290 290 289 288 288 288 288 289 290 291 290 289 288 289 289
282 283 281 281 281 281 281 281 281 281 281 281 280 280 280 280 281 282 286 286 286 286 287 289 288 289 288 289 290 290 289 288 287 287 288 287 287 289 291 291 289 288 288 287
281 281 281 280 281 281 282 282 282 282 281 281 280 279 279 280 281 282 286 286 286 286 287 287 289 288 289 289 290 290 289 288 288 287 288 287 287 288 289 290 289 289 288 288
279 279 280 280 281 282 282 283 282 282 282 281 279 279 280 280 281 283 286 286 286 286 286 287 289 289 290 289 290 289 288 288 287 287 286 286 287 287 289 290 291 290 290 289
284 284 285 283 282 283 282 282 282 281 280 280 280 280 281 281 282 283 286 286 286 286 287 288 288 289 289 289 290 289 288 288 287 286 286 286 286 287 290 291 291 292 293 292
286 281 280 281 283 284 283 282 282 281 281 279 280 280 281 281 282 285 286 286 286 286 287 288 288 289 289 290 291 290 288 289 286 286 286 286 285 285 285 288 289 290 292 292
281 282 280 281 281 283 283 283 286 281 280 280 280 280 281 282 283 284 285 286 287 287 287 288 288 288 290 291 290 290 288 290 287 286 286 286 286 285 285 284 284 286 289 290
281 281 282 282 283 282 283 283 280 279 279 278 279 280 281 282 282 283 286 287 287 287 287 287 287 288 291 291 289 289 288 289 288 287 287 287 286 286 285 285 285 285 287 289
280 280 282 282 282 281 282 281 280 279 278 278 279 279 281 282 282 283 286 286 285 285 286 286 287 288 291 291 290 289 288 289 289 287 287 286 286 286 285 285 285 285 285 286
280 278 279 281 281 281 281 282 281 280 279 278 278 280 281 282 282 283 286 286 286 286 287 287 287 290 290 291 290 288 288 287 288 287 286 286 286 285 285 285 285 285 285 287
284 286 285 284 282 282 281 281 281 280 279 279 279 279 280 281 281 282 285 285 286 286 286 287 289 290 291 292 290 288 287 286 286 286 286 286 286 286 286 286 285 285 285 286
283 284 284 284 284 283 282 281 281 281 279 279 279 279 281 281 281 282 285 284 284 284 285 287 290 289 290 292 290 287 286 286 286 286 286 286 286 285 285 286 285 286 286 285
283 284 284 284 284 283 282 282 281 280 279 279 279 279 280 281 281 282 284 283 284 286 287 288 288 288 291 290 289 286 286 286 286 286 286 285 285 285 285 285 285 285 286 286
283 283 283 282 282 283 283 282 281 279 279 279 280 280 280 281 281 282 283 282 285 287 287 288 288 289 291 289 287 286 285 285 285 285 285 285 285 285 285 285 285 285 285 285
283 283 282 282 282 282 282 282 281 280 279 279 280 280 280 280 280 282 284 284 286 287 287 286 287 290 290 290 287 285 284 284 284 284 284 285 285 285 285 285 285 285 285 285
283 283 283 282 282 282 282 281 280 280 279 279 279 280 281 281 281 280 280 285 286 286 286 286 289 289 289 289 289 287 285 285 284 284 283 284 285 285 285 285 285 285 285 286
283 282 283 283 283 281 280 280 280 280 280 281 281 281 281 281 280 283 284 286 286 285 285 287 288 289 288 287 288 287 287 286 285 285 285 285 284 284 285 285 285 285 286 286
283 283 283 282 282 282 281 280 280 279 279 280 280 281 282 283 283 282 283 285 286 285 284 287 288 287 287 287 287 287 287 287 287 286 285 284 284 284 284 284 284 285 286 285
282 282 283 283 284 283 282 281 280 280 280 279 280 281 281 282 283 282 284 285 284 284 284 285 286 286 286 286 286 286 286 287 287 287 286 286 285 284 284 283 283 284 285 285
283 285 283 283 283 283 282 282 280 279 281 281 281 281 281 282 282 282 284 284 284 283 284 284 284 286 285 286 286 286 287 287 287 287 287 287 286 285 285 284 284 284 285 285
Wind_Speed
2 1 2 3 5 9 7 4 6 3 8 7 5 4 6 7 10 13 14 14 14 14 14 15 14 15 15 16 16 16 16 15 16 15 15 15 16 16 16 17 17 17 18 19
2 1 2 4 6 8 6 3 9 7 15 4 0 2 3 5 10 12 14 14 14 15 15 15 14 14 15 15 16 16 16 16 15 15 15 15 15 15 15 16 17 17 18 18
3 3 4 6 7 11 5 5 6 6 6 2 3 5 4 6 8 12 13 13 13 14 13 14 14 14 14 15 16 15 15 15 15 14 15 15 13 13 13 14 16 17 16 17
2 3 3 1 2 3 5 5 11 4 3 3 3 4 6 4 6 10 11 11 12 11 11 12 13 14 15 14 14 14 15 15 14 14 13 14 15 15 15 12 14 14 17 17
2 2 6 1 5 7 7 5 9 8 4 3 1 2 2 4 4 7 9 9 9 10 11 10 13 13 13 14 14 14 15 15 14 14 13 12 14 15 14 13 11 13 13 16
3 2 4 2 3 4 4 4 7 7 6 5 2 0 1 3 6 8 9 7 10 11 9 10 12 13 13 14 14 15 15 15 13 12 12 12 11 12 14 13 13 10 12 13
2 4 9 3 7 5 3 4 6 7 5 7 3 3 1 4 5 6 9 8 11 10 9 10 12 12 13 13 14 14 14 12 12 12 11 12 12 10 12 12 13 13 12 11
4 1 6 8 5 7 3 2 6 5 6 6 3 1 2 4 5 7 8 7 10 8 9 9 12 12 12 12 12 13 13 12 12 12 9 9 11 11 10 11 12 13 12 11
10 7 1 12 2 3 4 6 6 7 5 6 5 3 2 4 4 6 8 7 7 7 7 9 10 11 12 13 12 12 12 12 12 12 11 9 9 11 9 10 10 10 10 10
2 2 6 11 3 4 5 5 6 6 6 7 5 4 2 3 4 5 8 6 6 7 8 9 8 11 10 11 12 12 12 12 11 11 12 10 7 7 8 9 9 10 10 10
7 4 0 6 8 9 7 7 8 7 6 7 6 4 3 2 3 4 8 6 5 7 7 8 9 10 11 11 12 11 10 9 10 8 10 10 8 7 7 9 10 9 9 9
8 8 5 4 18 14 13 12 12 10 7 5 6 6 3 1 2 4 6 5 5 6 7 8 9 9 11 12 11 11 9 8 8 7 7 8 8 8 11 11 14 15 17 14
3 6 3 3 16 15 13 14 11 11 8 9 5 4 3 1 2 4 6 6 5 5 6 7 8 9 11 11 11 11 9 8 6 7 7 7 7 8 9 9 12 15 19 18
8 12 6 7 9 13 11 12 14 7 6 6 6 4 3 1 1 3 5 4 4 4 5 6 8 9 10 11 11 10 8 10 6 5 5 6 7 7 7 8 9 9 13 16
13 1 3 10 16 12 12 13 12 10 8 6 5 5 4 2 1 2 3 4 4 3 5 6 7 9 9 10 11 10 7 5 5 5 5 6 5 6 6 7 8 8 8 12
9 7 11 13 18 15 17 14 13 11 8 6 6 6 5 2 1 2 2 3 4 5 6 5 6 7 7 7 11 9 8 11 7 5 5 5 5 6 6 7 7 8 8 9
13 7 8 14 18 19 18 15 13 13 10 9 8 6 5 3 2 1 2 4 3 4 5 6 7 7 6 7 8 7 6 7 10 4 5 5 5 5 5 5 6 7 7 8
3 16 20 23 24 20 16 14 13 13 11 10 8 7 5 4 3 1 2 3 4 4 5 7 7 6 6 6 7 5 4 5 5 5 4 4 5 5 5 5 5 6 6 8
8 17 17 19 19 19 17 15 14 12 11 11 10 8 6 4 3 1 0 4 4 4 6 7 11 8 6 8 7 4 5 6 6 6 5 6 4 4 5 6 6 6 5 6
10 15 16 18 17 19 17 13 14 12 10 11 8 8 6 4 3 2 0 4 3 3 5 6 7 7 6 8 10 4 5 5 6 6 6 6 6 5 4 6 6 6 6 6
17 18 19 20 18 16 16 15 15 14 12 11 11 9 8 5 4 3 3 2 3 4 5 7 6 5 3 5 6 5 6 6 6 5 6 6 7 7 7 6 5 6 6 6
18 19 19 19 19 16 15 14 14 13 12 10 8 8 7 6 5 4 2 2 1 4 3 4 4 7 5 8 4 5 6 6 6 6 6 6 6 6 6 7 7 6 5 6
17 18 18 19 20 18 15 14 14 15 14 12 11 10 8 5 4 4 3 1 3 3 2 4 7 8 8 4 4 3 6 6 6 6 6 6 6 6 6 7 7 6 7 6
17 17 17 16 17 17 18 13 14 13 12 11 10 10 9 6 2 1 2 4 5 4 3 3 7 10 8 4 4 5 4 4 6 5 6 8 6 6 6 6 7 6 7 8
17 17 18 19 19 14 16 15 12 11 11 9 9 7 7 4 3 5 4 4 7 5 2 5 9 8 4 4 5 5 4 4 5 4 4 5 7 7 8 7 6 7 6 5
19 15 14 18 14 13 13 13 11 10 9 9 6 6 5 4 6 6 5 7 5 5 3 1 2 3 4 4 5 6 5 5 6 5 6 5 7 7 8 8 8 8 7 7
12 18 13 10 10 12 13 13 13 12 12 11 10 7 7 7 7 7 9 7 5 5 2 2 3 4 3 4 4 5 5 5 7 6 6 5 5 6 7 8 8 8 8 7
Wind_Direction
227 197 180 199 175 179 182 170 187 253 234 283 291 301 306 322 332 343 347 347 346 351 354 355 353 352 345 344 346 348 349 351 349 346 351 356 353 350 1 2 359 360 1 356
269 217 234 265 215 194 203 193 265 265 281 214 207 254 296 325 338 344 344 342 344 349 353 351 351 346 343 343 344 348 349 350 345 349 355 1 353 347 357 7 7 6 4 4
277 351 318 289 213 182 168 190 163 210 232 155 289 325 338 328 342 337 339 337 340 346 349 345 352 341 342 342 344 349 351 352 349 353 356 360 351 347 359 13 12 12 8 6
232 344 348 202 75 173 197 208 208 256 197 188 247 288 291 248 329 333 334 333 339 339 345 338 345 346 340 347 351 354 354 354 352 354 355 359 2 0 0 10 19 17 11 6
115 214 293 197 209 169 177 273 192 215 166 187 250 326 280 222 328 314 322 320 330 335 338 337 348 346 344 352 357 359 358 354 352 352 352 347 3 8 6 359 10 22 18 13
100 128 227 206 164 159 122 286 182 178 157 176 139 314 253 294 326 324 320 329 337 338 338 345 342 348 350 360 1 1 355 349 349 350 351 351 353 4 10 8 6 1 15 22
153 240 283 179 146 159 100 240 162 168 146 158 189 207 253 317 335 324 323 348 349 347 352 353 341 340 356 3 4 353 346 350 355 354 350 0 353 346 11 11 12 8 13 13
90 52 301 155 87 178 168 74 138 142 161 164 190 233 292 313 328 325 334 360 358 354 358 354 350 344 355 0 357 351 348 355 360 356 359 355 358 350 12 15 15 12 14 17
185 215 104 194 84 168 148 145 164 143 161 159 164 199 269 298 326 315 342 2 359 345 335 359 360 345 350 352 356 355 352 359 2 0 5 3 360 1 2 11 18 20 13 17
25 190 208 199 177 160 171 148 145 141 147 160 157 175 221 295 325 328 348 3 358 352 354 345 354 358 357 354 355 357 354 357 360 9 5 7 4 1 7 7 11 17 17 10
266 245 241 232 191 168 156 128 128 137 145 162 148 177 200 277 323 312 359 5 7 348 353 348 343 352 350 356 358 358 354 357 4 7 8 1 10 5 7 11 13 10 14 15
221 187 174 198 172 157 151 157 155 144 139 157 156 172 179 266 299 298 360 360 6 353 349 351 342 348 355 359 3 357 356 1 4 5 9 13 4 4 20 21 21 17 19 21
197 123 57 64 146 151 153 155 158 151 151 157 157 164 165 158 286 340 9 357 357 351 349 351 353 350 354 351 352 359 354 352 0 15 14 16 14 12 6 1 22 25 23 22
139 121 67 191 175 159 139 151 149 136 133 149 155 152 150 171 276 312 24 352 340 356 2 3 359 354 344 348 351 352 352 0 6 9 21 23 21 15 12 12 9 6 7 18
184 328 167 130 135 139 137 140 141 151 147 147 167 156 164 170 239 302 357 351 345 7 15 12 6 352 343 348 353 346 348 353 6 8 14 36 32 24 21 16 14 9 2 13
148 118 134 143 154 151 151 158 154 164 159 153 166 171 176 183 237 281 6 18 358 356 12 2 360 339 345 334 359 348 346 350 20 11 9 16 32 37 25 19 15 14 13 3
126 146 150 159 167 167 172 169 164 165 159 162 175 167 159 163 123 345 51 21 11 356 10 354 330 343 351 340 8 359 352 345 354 19 21 5 12 24 32 30 20 13 10 3
155 171 177 168 166 164 167 167 156 157 167 168 154 155 156 167 152 226 17 20 4 6 23 350 334 357 347 356 18 0 4 0 355 355 359 27 11 5 11 18 27 17 4 2
166 153 160 160 165 162 161 162 159 156 147 153 154 167 168 170 154 191 357 28 19 357 358 348 349 346 341 18 28 9 14 14 11 4 358 3 29 20 7 6 3 9 11 6
145 147 149 149 157 158 156 159 144 144 154 150 147 144 159 165 166 163 142 57 9 319 339 343 348 335 345 17 23 24 19 29 26 18 14 8 1 4 15 7 1 1 360 5
157 152 152 153 156 154 154 152 147 151 158 153 157 164 171 157 168 136 119 86 351 350 358 352 349 334 12 44 26 23 23 23 26 21 20 15 3 0 357 360 1 356 356 356
155 155 156 153 153 147 149 151 147 143 151 156 151 149 149 160 164 155 137 98 19 45 343 334 324 5 41 28 42 38 27 25 20 7 10 12 15 8 357 353 351 351 351 346
156 154 153 155 156 148 143 149 151 151 157 162 160 164 168 165 166 156 142 270 79 72 353 316 14 40 40 32 31 36 38 27 22 15 3 359 358 3 357 353 349 346 342 344
149 150 149 146 138 140 150 159 152 154 160 158 156 164 152 149 144 139 165 127 106 85 8 12 39 42 39 21 30 24 19 21 21 9 359 356 347 346 351 350 344 343 343 341
150 147 146 148 154 157 151 151 142 141 149 149 151 160 161 163 148 160 159 125 108 95 60 40 47 40 21 26 29 31 18 9 10 4 5 358 345 341 336 335 338 332 332 334
155 157 158 162 157 152 152 153 155 154 156 153 155 161 155 144 135 137 146 132 119 108 96 32 19 29 17 29 32 28 18 6 7 2 356 347 357 347 341 334 326 327 326 322
145 145 148 148 151 155 157 159 154 164 168 166 158 165 155 148 148 144 145 136 132 127 109 51 32 20 30 35 25 24 10 14 10 359 352 344 346 352 345 336 327 320 317 317